contact:dominique.lefevre@mio.osupytheas.fr, maurice.libes@osupytheas.fr, didier.mallarino@osupytheas.fr
Project:EMSO http://www.emso-fr.org/EMSO-France
Depth: 2436.0 m
Title:EMSO Ligure Ouest : Data MII capteur AQUADOPP
Date,Latitude,Longitude,X_East,Y_North,Z_Up,Amplitude_X,Amplitude_Y,Amplitude_Z,Batterie,SoundSpeed,Heading,Pitch,Roll,Pressure,TIS,Speed,Direction
, degrees North, degrees East, m.s-1, m.s-1,m.s-1, 1, 1, 1, Volt, m.s-1, degree, degree, degree, dbar, degree_C, m.s-1, degree
2022-10-14T00:04:03,42.805,6.029,-0.036,0.029,-0.02,103.0,101.0,100.0,13.4,1505.2,328.6,-0.8,1.8,2471.06,13.28,0.046,308.9
2022-10-14T00:07:03,42.805,6.029,-0.033,0.02,-0.021,103.0,103.0,101.0,13.4,1505.2,324.0,-0.8,1.8,2471.059,13.28,0.038,301.2
2022-10-14T00:10:03,42.805,6.029,-0.055,0.013,-0.02,103.0,102.0,100.0,13.4,1505.2,324.3,-0.8,1.8,2471.048,13.29,0.056,283.3
2022-10-14T00:13:03,42.805,6.029,-0.041,0.018,-0.026,102.0,101.0,101.0,13.4,1505.2,326.3,-0.8,1.8,2471.044,13.29,0.044,293.7
2022-10-14T00:16:03,42.805,6.029,-0.013,0.009,-0.034,102.0,102.0,100.0,13.4,1505.2,333.7,-0.8,1.8,2471.055,13.29,0.015,304.7
2022-10-14T00:19:03,42.805,6.029,-0.028,0.016,-0.004,101.0,103.0,100.0,13.4,1505.2,329.1,-0.8,1.8,2471.066,13.29,0.032,299.7
2022-10-14T00:22:03,42.805,6.029,-0.023,0.022,0.025,101.0,101.0,102.0,13.4,1505.2,322.8,-0.8,1.8,2471.007,13.29,0.031,313.7
2022-10-14T00:25:03,42.805,6.029,-0.036,0.008,-0.027,101.0,102.0,101.0,13.3,1505.2,334.0,-0.8,1.8,2471.039,13.29,0.036,282.5
2022-10-14T00:28:03,42.805,6.029,-0.019,-0.003,-0.02,102.0,103.0,100.0,13.3,1505.2,320.5,-0.8,1.8,2470.989,13.29,0.019,261.0
2022-10-14T00:31:03,42.805,6.029,-0.032,0.022,-0.022,102.0,102.0,100.0,13.4,1505.2,320.7,-0.8,1.8,2471.054,13.29,0.038,304.5
2022-10-14T00:34:03,42.805,6.029,-0.044,0.025,0.007,102.0,102.0,102.0,13.3,1505.2,322.5,-0.8,1.8,2470.976,13.29,0.05,299.6
2022-10-14T00:37:03,42.805,6.029,-0.042,0.031,-0.013,103.0,102.0,102.0,13.4,1505.2,329.2,-0.8,1.8,2470.996,13.29,0.052,306.4
2022-10-14T00:40:03,42.805,6.029,-0.031,0.033,0.008,103.0,103.0,101.0,13.4,1505.2,325.7,-0.8,1.8,2471.029,13.29,0.045,316.8
2022-10-14T00:43:03,42.805,6.029,-0.037,0.013,-0.023,102.0,103.0,100.0,13.4,1505.2,321.8,-0.8,1.9,2471.007,13.29,0.039,289.4
2022-10-14T00:46:03,42.805,6.029,-0.036,0.01,-0.02,104.0,102.0,100.0,13.3,1505.2,328.1,-0.8,1.8,2470.966,13.29,0.037,285.5
2022-10-14T00:49:03,42.805,6.029,-0.036,0.03,0.007,103.0,102.0,101.0,13.4,1505.2,323.9,-0.7,1.8,2470.974,13.29,0.046,309.8
2022-10-14T00:52:03,42.805,6.029,-0.024,0.0,-0.004,102.0,102.0,102.0,13.4,1505.2,330.5,-0.7,1.8,2470.987,13.29,0.024,270.0
2022-10-14T00:55:03,42.805,6.029,-0.04,0.014,0.003,103.0,102.0,101.0,13.4,1505.2,327.9,-0.8,1.8,2470.972,13.29,0.042,289.3
2022-10-14T00:58:03,42.805,6.029,-0.033,0.018,-0.029,102.0,104.0,101.0,13.4,1505.2,322.1,-0.7,1.8,2470.996,13.29,0.037,298.6
2022-10-14T01:04:03,42.805,6.029,-0.037,-0.008,-0.008,105.0,105.0,105.0,13.4,1505.2,322.1,-0.8,1.8,2471.03,13.28,0.037,257.8
2022-10-14T01:07:04,42.805,6.029,-0.026,0.012,-0.013,103.0,103.0,101.0,13.4,1505.2,323.5,-0.8,1.8,2471.004,13.29,0.028,294.8
2022-10-14T01:10:03,42.805,6.029,-0.02,0.012,0.003,104.0,104.0,102.0,13.4,1505.2,330.3,-0.7,1.8,2470.993,13.29,0.023,301.0
2022-10-14T01:13:03,42.805,6.029,-0.021,0.009,0.017,103.0,102.0,101.0,13.3,1505.2,329.7,-0.7,1.8,2470.989,13.29,0.022,293.2
2022-10-14T01:16:03,42.805,6.029,-0.023,0.031,-0.052,104.0,104.0,103.0,13.3,1505.2,332.0,-0.8,1.8,2471.021,13.29,0.038,323.4
2022-10-14T01:19:03,42.805,6.029,-0.025,0.007,-0.023,103.0,103.0,101.0,13.3,1505.2,323.2,-0.7,1.8,2471.023,13.29,0.025,285.6
2022-10-14T01:22:03,42.805,6.029,-0.043,0.02,0.003,102.0,103.0,102.0,13.3,1505.2,323.9,-0.8,1.8,2470.964,13.29,0.047,294.9
2022-10-14T01:25:03,42.805,6.029,-0.05,0.012,-0.006,104.0,102.0,102.0,13.4,1505.2,326.4,-0.8,1.8,2470.964,13.29,0.051,283.5
2022-10-14T01:28:03,42.805,6.029,-0.023,0.02,-0.01,103.0,105.0,102.0,13.3,1505.2,324.8,-0.8,1.8,2471.03,13.29,0.03,311.0
2022-10-14T01:31:03,42.805,6.029,-0.024,0.009,0.0,104.0,104.0,101.0,13.3,1505.2,324.3,-0.8,1.8,2470.964,13.29,0.025,290.6
2022-10-14T01:34:03,42.805,6.029,-0.042,0.039,-0.019,103.0,102.0,103.0,13.3,1505.2,325.1,-0.8,1.8,2470.968,13.29,0.057,312.9
2022-10-14T01:37:03,42.805,6.029,-0.012,0.009,-0.033,103.0,103.0,101.0,13.4,1505.2,323.7,-0.7,1.8,2470.965,13.29,0.015,306.9
2022-10-14T01:40:03,42.805,6.029,-0.028,0.029,-0.007,104.0,103.0,101.0,13.3,1505.2,331.2,-0.8,1.8,2470.941,13.29,0.04,316.0
2022-10-14T01:43:03,42.805,6.029,-0.058,0.028,0.008,103.0,103.0,101.0,13.4,1505.2,328.0,-0.7,1.8,2470.967,13.29,0.064,295.8
2022-10-14T01:46:03,42.805,6.029,-0.014,0.026,-0.007,102.0,104.0,102.0,13.4,1505.2,319.9,-0.7,1.8,2470.97,13.29,0.029,331.7
2022-10-14T01:49:03,42.805,6.029,-0.043,0.013,-0.026,103.0,103.0,101.0,13.4,1505.2,332.5,-0.7,1.8,2470.934,13.29,0.044,286.8
2022-10-14T01:52:03,42.805,6.029,-0.051,0.025,-0.026,103.0,103.0,102.0,13.4,1505.2,333.4,-0.8,1.8,2470.953,13.29,0.056,296.1
2022-10-14T01:55:03,42.805,6.029,-0.03,0.037,0.002,103.0,103.0,101.0,13.4,1505.2,328.0,-0.7,1.8,2470.938,13.29,0.047,321.0
2022-10-14T01:58:03,42.805,6.029,-0.04,0.014,0.012,103.0,103.0,102.0,13.4,1505.2,319.9,-0.7,1.8,2470.953,13.29,0.042,289.3
2022-10-14T02:04:03,42.805,6.029,-0.028,0.019,0.005,104.0,103.0,101.0,13.4,1505.2,332.7,-0.8,1.9,2470.987,13.28,0.033,304.2
2022-10-14T02:07:03,42.805,6.029,-0.017,0.024,0.001,103.0,103.0,101.0,13.4,1505.2,327.0,-0.8,1.8,2470.988,13.29,0.029,324.7
2022-10-14T02:10:03,42.805,6.029,-0.005,0.014,-0.023,104.0,103.0,100.0,13.3,1505.2,331.9,-0.8,1.8,2470.924,13.29,0.014,340.4
2022-10-14T02:13:03,42.805,6.029,-0.014,-0.001,0.016,104.0,102.0,101.0,13.4,1505.2,323.2,-0.8,1.9,2470.974,13.29,0.014,265.9
2022-10-14T02:16:03,42.805,6.029,-0.04,0.0,-0.017,104.0,103.0,101.0,13.4,1505.2,320.3,-0.8,1.8,2470.963,13.29,0.04,270.0
2022-10-14T02:19:03,42.805,6.029,-0.048,0.027,-0.024,103.0,103.0,101.0,13.4,1505.2,317.9,-0.8,1.8,2470.963,13.29,0.055,299.4
2022-10-14T02:22:03,42.805,6.029,-0.029,0.019,0.004,104.0,103.0,101.0,13.4,1505.2,316.7,-0.8,1.8,2470.977,13.29,0.034,303.2
2022-10-14T02:25:03,42.805,6.029,-0.017,0.0,-0.019,103.0,104.0,101.0,13.4,1505.2,328.6,-0.7,1.8,2470.945,13.29,0.017,270.0
2022-10-14T02:28:03,42.805,6.029,-0.019,0.014,0.005,103.0,103.0,102.0,13.4,1505.2,327.8,-0.8,1.8,2470.966,13.29,0.023,306.4
2022-10-14T02:31:03,42.805,6.029,-0.033,0.01,-0.024,104.0,103.0,101.0,13.3,1505.2,322.4,-0.8,1.8,2470.956,13.29,0.034,286.9
2022-10-14T02:34:03,42.805,6.029,-0.036,0.028,-0.031,104.0,104.0,101.0,13.4,1505.2,331.5,-0.8,1.8,2470.952,13.29,0.045,307.9
2022-10-14T02:37:03,42.805,6.029,-0.033,0.009,-0.054,103.0,103.0,102.0,13.4,1505.2,321.2,-0.7,1.8,2470.959,13.29,0.034,285.3
2022-10-14T02:40:03,42.805,6.029,-0.025,0.01,-0.009,104.0,103.0,100.0,13.4,1505.2,323.3,-0.7,1.8,2470.918,13.29,0.026,291.8
2022-10-14T02:43:03,42.805,6.029,-0.035,0.014,0.002,105.0,103.0,101.0,13.4,1505.2,330.5,-0.7,1.8,2470.948,13.29,0.037,291.8
2022-10-14T02:46:03,42.805,6.029,-0.015,0.008,-0.014,104.0,104.0,100.0,13.4,1505.2,327.3,-0.8,1.8,2470.947,13.29,0.017,298.1
2022-10-14T02:49:03,42.805,6.029,-0.058,0.039,0.016,103.0,103.0,102.0,13.4,1505.2,323.3,-0.8,1.8,2470.94,13.29,0.069,303.9
2022-10-14T02:52:03,42.805,6.029,-0.024,0.026,-0.01,104.0,103.0,102.0,13.4,1505.2,328.7,-0.7,1.8,2470.93,13.29,0.035,317.3
2022-10-14T02:55:03,42.805,6.029,-0.007,0.002,-0.006,103.0,104.0,101.0,13.4,1505.2,328.6,-0.7,1.8,2470.93,13.29,0.007,285.9
2022-10-14T02:58:03,42.805,6.029,-0.035,0.022,0.005,105.0,104.0,100.0,13.4,1505.2,328.4,-0.7,1.8,2470.942,13.29,0.041,302.2
2022-10-14T03:04:03,42.805,6.029,-0.022,0.0,-0.031,104.0,103.0,102.0,13.4,1505.2,324.2,-0.8,1.8,2470.975,13.28,0.022,270.0
2022-10-14T03:07:03,42.805,6.029,-0.032,0.027,-0.042,103.0,103.0,101.0,13.4,1505.2,329.2,-0.7,1.8,2470.993,13.29,0.041,310.2
2022-10-14T03:10:03,42.805,6.029,-0.028,0.021,-0.009,103.0,103.0,101.0,13.4,1505.2,318.8,-0.7,1.8,2470.966,13.29,0.035,306.9
2022-10-14T03:13:03,42.805,6.029,-0.027,0.002,-0.045,103.0,103.0,101.0,13.4,1505.2,332.8,-0.7,1.8,2470.923,13.29,0.027,274.2
2022-10-14T03:16:03,42.805,6.029,-0.037,0.03,-0.007,103.0,103.0,101.0,13.4,1505.2,325.5,-0.7,1.8,2470.963,13.29,0.047,309.0
2022-10-14T03:19:03,42.805,6.029,-0.065,0.012,-0.01,102.0,102.0,101.0,13.3,1505.2,330.9,-0.8,1.8,2470.96,13.29,0.066,280.5
2022-10-14T03:22:03,42.805,6.029,-0.008,0.004,-0.021,101.0,102.0,101.0,13.3,1505.2,325.5,-0.8,1.8,2470.913,13.29,0.008,296.6
2022-10-14T03:25:03,42.805,6.029,-0.022,0.032,0.006,103.0,102.0,101.0,13.4,1505.2,321.6,-0.8,1.8,2470.894,13.29,0.038,325.5
2022-10-14T03:28:03,42.805,6.029,-0.033,0.016,-0.03,103.0,103.0,101.0,13.4,1505.2,328.1,-0.8,1.8,2470.928,13.29,0.036,295.9
2022-10-14T03:31:03,42.805,6.029,-0.038,0.037,-0.003,103.0,104.0,101.0,13.4,1505.2,329.5,-0.8,1.9,2470.923,13.29,0.053,314.2
2022-10-14T03:34:03,42.805,6.029,-0.028,0.01,-0.009,104.0,102.0,101.0,13.4,1505.2,325.7,-0.8,1.8,2470.957,13.29,0.029,289.6
2022-10-14T03:37:03,42.805,6.029,-0.042,0.012,0.005,103.0,103.0,101.0,13.3,1505.2,317.5,-0.7,1.8,2470.93,13.29,0.043,285.9
2022-10-14T03:40:03,42.805,6.029,-0.042,0.016,0.0,102.0,102.0,101.0,13.4,1505.2,316.6,-0.8,1.8,2470.909,13.29,0.044,290.9
2022-10-14T03:43:03,42.805,6.029,-0.042,0.025,-0.018,103.0,102.0,101.0,13.4,1505.2,317.9,-0.7,1.8,2470.931,13.29,0.048,300.8
2022-10-14T03:46:03,42.805,6.029,-0.043,0.026,0.009,101.0,102.0,101.0,13.4,1505.2,317.9,-0.8,1.8,2470.926,13.29,0.05,301.2
2022-10-14T03:49:03,42.805,6.029,-0.027,0.021,-0.029,103.0,102.0,101.0,13.4,1505.2,331.7,-0.8,1.9,2470.926,13.29,0.034,307.9
2022-10-14T03:52:03,42.805,6.029,-0.011,0.017,-0.019,103.0,102.0,100.0,13.3,1505.2,329.6,-0.8,1.8,2470.911,13.29,0.02,327.1
2022-10-14T03:55:03,42.805,6.029,-0.001,0.036,-0.019,102.0,103.0,101.0,13.4,1505.2,322.7,-0.8,1.8,2470.943,13.29,0.036,358.4
2022-10-14T03:58:03,42.805,6.029,-0.022,0.016,0.014,102.0,102.0,102.0,13.4,1505.2,324.9,-0.7,1.8,2470.935,13.29,0.027,306.0
2022-10-14T04:04:03,42.805,6.029,-0.036,0.02,0.008,102.0,103.0,101.0,13.4,1505.2,328.4,-0.8,1.8,2470.942,13.29,0.041,299.1
2022-10-14T04:07:03,42.805,6.029,-0.05,0.022,-0.018,103.0,103.0,101.0,13.4,1505.2,325.6,-0.8,1.9,2470.982,13.29,0.054,293.7
2022-10-14T04:10:03,42.805,6.029,-0.023,0.024,-0.021,102.0,104.0,100.0,13.3,1505.2,324.0,-0.8,1.8,2470.961,13.29,0.033,316.2
2022-10-14T04:13:03,42.805,6.029,-0.038,0.004,-0.022,103.0,103.0,101.0,13.3,1505.2,323.4,-0.8,1.8,2470.947,13.29,0.038,276.0
2022-10-14T04:16:03,42.805,6.029,-0.058,0.019,-0.018,104.0,103.0,100.0,13.4,1505.2,326.7,-0.8,1.8,2470.934,13.29,0.061,288.1
2022-10-14T04:19:03,42.805,6.029,-0.019,-0.004,-0.018,103.0,102.0,100.0,13.4,1505.2,322.2,-0.7,1.8,2470.948,13.29,0.019,258.1
2022-10-14T04:22:03,42.805,6.029,-0.032,0.02,-0.002,104.0,103.0,101.0,13.4,1505.2,324.3,-0.8,1.8,2470.926,13.29,0.037,302.0
2022-10-14T04:25:03,42.805,6.029,-0.029,0.02,-0.006,103.0,102.0,102.0,13.4,1505.2,325.3,-0.8,1.8,2470.969,13.29,0.035,304.6
2022-10-14T04:28:03,42.805,6.029,-0.042,0.006,-0.031,103.0,103.0,101.0,13.4,1505.2,316.2,-0.8,1.8,2470.903,13.29,0.042,278.1
2022-10-14T04:31:03,42.805,6.029,-0.041,0.013,-0.015,103.0,103.0,101.0,13.4,1505.2,320.5,-0.8,1.8,2470.924,13.29,0.043,287.6
2022-10-14T04:34:03,42.805,6.029,-0.036,0.03,0.003,102.0,103.0,101.0,13.3,1505.2,326.1,-0.8,1.8,2470.942,13.29,0.046,309.8
2022-10-14T04:37:03,42.805,6.029,-0.027,0.025,-0.006,104.0,103.0,101.0,13.4,1505.2,327.2,-0.8,1.8,2470.918,13.29,0.036,312.8
2022-10-14T04:40:03,42.805,6.029,-0.048,0.006,0.015,103.0,103.0,102.0,13.4,1505.2,320.9,-0.8,1.8,2470.92,13.29,0.048,277.1
2022-10-14T04:43:03,42.805,6.029,-0.036,0.015,-0.024,103.0,102.0,102.0,13.4,1505.2,329.5,-0.8,1.8,2470.898,13.29,0.039,292.6
2022-10-14T04:46:03,42.805,6.029,-0.014,0.01,0.002,103.0,103.0,101.0,13.4,1505.2,334.3,-0.8,1.8,2470.927,13.29,0.017,305.5
2022-10-14T04:49:03,42.805,6.029,-0.025,-0.006,-0.032,104.0,103.0,101.0,13.4,1505.2,325.0,-0.7,1.8,2470.933,13.29,0.025,256.5
2022-10-14T04:52:03,42.805,6.029,-0.032,0.027,-0.008,105.0,104.0,101.0,13.4,1505.2,323.0,-0.8,1.8,2470.918,13.29,0.041,310.2
2022-10-14T04:55:03,42.805,6.029,-0.015,0.007,-0.026,103.0,103.0,101.0,13.3,1505.2,328.0,-0.7,1.8,2470.918,13.29,0.016,295.0
2022-10-14T04:58:03,42.805,6.029,-0.015,-0.009,-0.014,104.0,103.0,101.0,13.4,1505.2,322.5,-0.8,1.8,2470.917,13.29,0.017,239.0
2022-10-14T05:04:03,42.805,6.029,-0.043,0.017,0.0,103.0,103.0,101.0,13.3,1505.2,323.8,-0.8,1.8,2471.011,13.29,0.046,291.6
2022-10-14T05:07:03,42.805,6.029,0.006,0.009,-0.01,103.0,104.0,102.0,13.3,1505.2,332.8,-0.8,1.8,2470.95,13.29,0.01,33.7
2022-10-14T05:10:03,42.805,6.029,-0.007,-0.013,-0.005,103.0,104.0,101.0,13.3,1505.2,319.5,-0.7,1.8,2470.969,13.29,0.014,208.3
2022-10-14T05:13:03,42.805,6.029,-0.006,0.001,0.004,104.0,102.0,102.0,13.3,1505.2,326.3,-0.8,1.8,2470.957,13.29,0.006,279.5
2022-10-14T05:16:03,42.805,6.029,-0.014,0.017,0.024,103.0,104.0,101.0,13.4,1505.2,334.0,-0.8,1.8,2470.947,13.29,0.022,320.5
2022-10-14T05:19:03,42.805,6.029,0.007,0.001,-0.031,103.0,103.0,101.0,13.3,1505.2,326.1,-0.7,1.8,2470.959,13.29,0.007,81.9
2022-10-14T05:22:03,42.805,6.029,-0.026,0.015,-0.032,103.0,102.0,101.0,13.4,1505.2,326.3,-0.8,1.8,2470.941,13.29,0.03,300.0
2022-10-14T05:25:03,42.805,6.029,-0.016,0.012,-0.029,103.0,103.0,101.0,13.4,1505.2,327.0,-0.7,1.9,2470.915,13.29,0.02,306.9
2022-10-14T05:28:03,42.805,6.029,-0.025,0.006,-0.001,102.0,104.0,101.0,13.4,1505.2,331.5,-0.7,1.8,2470.92,13.29,0.025,283.5
2022-10-14T05:31:03,42.805,6.029,-0.037,0.005,-0.011,103.0,103.0,101.0,13.4,1505.2,318.2,-0.8,1.8,2470.946,13.29,0.037,277.7
2022-10-14T05:34:03,42.805,6.029,-0.042,0.016,-0.032,102.0,104.0,101.0,13.4,1505.2,334.0,-0.8,1.8,2470.94,13.29,0.044,290.9
2022-10-14T05:37:03,42.805,6.029,-0.021,0.003,-0.005,103.0,103.0,101.0,13.3,1505.2,323.3,-0.7,1.8,2470.895,13.29,0.021,278.1
2022-10-14T05:40:03,42.805,6.029,-0.017,-0.003,-0.012,102.0,102.0,101.0,13.4,1505.2,322.2,-0.8,1.8,2470.936,13.29,0.017,260.0
2022-10-14T05:43:03,42.805,6.029,-0.019,-0.02,-0.017,102.0,103.0,101.0,13.4,1505.2,322.0,-0.7,1.8,2470.963,13.29,0.027,223.5
2022-10-14T05:46:03,42.805,6.029,-0.025,0.004,0.002,102.0,101.0,101.0,13.4,1505.2,325.9,-0.7,1.8,2470.97,13.29,0.025,279.1
2022-10-14T05:49:03,42.805,6.029,-0.029,-0.001,-0.019,102.0,103.0,101.0,13.4,1505.2,315.8,-0.7,1.8,2470.964,13.29,0.029,268.0
2022-10-14T05:52:03,42.805,6.029,-0.007,0.005,0.0,102.0,104.0,101.0,13.3,1505.2,324.6,-0.8,1.8,2470.972,13.29,0.008,305.5
2022-10-14T05:55:03,42.805,6.029,-0.038,0.017,-0.024,103.0,103.0,101.0,13.4,1505.2,329.2,-0.8,1.8,2470.945,13.29,0.041,294.1
2022-10-14T05:58:03,42.805,6.029,-0.036,0.022,-0.001,102.0,104.0,103.0,13.4,1505.2,332.5,-0.7,1.8,2470.958,13.29,0.042,301.4
2022-10-14T06:04:03,42.805,6.029,-0.022,-0.001,0.0,102.0,102.0,100.0,13.4,1505.2,325.9,-0.8,1.8,2471.029,13.29,0.022,267.4
2022-10-14T06:07:03,42.805,6.029,-0.024,0.017,-0.026,101.0,102.0,100.0,13.4,1505.2,318.6,-0.8,1.8,2471.026,13.29,0.029,305.3
2022-10-14T06:10:03,42.805,6.029,-0.044,0.027,-0.022,101.0,101.0,101.0,13.3,1505.2,327.5,-0.7,1.8,2471.014,13.29,0.051,301.5
2022-10-14T06:13:03,42.805,6.029,0.005,0.031,0.011,102.0,100.0,100.0,13.4,1505.2,319.1,-0.8,1.8,2470.992,13.29,0.031,9.2
2022-10-14T06:16:03,42.805,6.029,-0.006,0.023,-0.029,100.0,103.0,100.0,13.4,1505.2,326.6,-0.8,1.8,2471.022,13.29,0.023,345.4
2022-10-14T06:19:03,42.805,6.029,-0.006,-0.018,-0.038,102.0,100.0,101.0,13.4,1505.2,320.3,-0.8,1.8,2470.967,13.29,0.018,198.4
2022-10-14T06:22:03,42.805,6.029,-0.028,-0.009,-0.023,101.0,102.0,100.0,13.4,1505.2,321.2,-0.7,1.8,2471.053,13.29,0.029,252.2
2022-10-14T06:25:03,42.805,6.029,-0.019,0.005,0.008,102.0,101.0,100.0,13.4,1505.2,316.7,-0.8,1.8,2471.022,13.29,0.019,284.7
2022-10-14T06:28:03,42.805,6.029,-0.003,0.008,-0.014,102.0,102.0,100.0,13.3,1505.2,329.0,-0.8,1.8,2470.964,13.29,0.008,339.4
2022-10-14T06:31:03,42.805,6.029,-0.013,-0.001,-0.011,102.0,102.0,100.0,13.4,1505.2,321.4,-0.7,1.8,2470.996,13.29,0.013,265.6
2022-10-14T06:34:03,42.805,6.029,-0.008,-0.001,0.002,101.0,102.0,101.0,13.4,1505.2,326.1,-0.8,1.8,2471.022,13.29,0.008,262.9
2022-10-14T06:37:03,42.805,6.029,-0.022,0.018,-0.031,104.0,101.0,100.0,13.4,1505.2,320.7,-0.8,1.8,2470.974,13.29,0.028,309.3
2022-10-14T06:40:03,42.805,6.029,-0.032,0.003,-0.026,101.0,102.0,101.0,13.4,1505.2,332.8,-0.8,1.8,2471.016,13.29,0.032,275.4
2022-10-14T06:43:03,42.805,6.029,-0.025,0.007,-0.025,102.0,101.0,100.0,13.4,1505.2,331.7,-0.8,1.8,2471.013,13.29,0.025,285.6
2022-10-14T06:46:03,42.805,6.029,-0.042,0.012,-0.038,101.0,102.0,100.0,13.4,1505.2,323.3,-0.8,1.9,2470.995,13.29,0.043,285.9
2022-10-14T06:49:03,42.805,6.029,-0.013,-0.004,-0.03,102.0,102.0,101.0,13.4,1505.2,322.6,-0.7,1.8,2471.015,13.29,0.013,252.9
2022-10-14T06:52:03,42.805,6.029,-0.009,-0.008,-0.03,101.0,102.0,101.0,13.4,1505.2,324.3,-0.8,1.8,2470.99,13.29,0.012,228.4
2022-10-14T06:55:03,42.805,6.029,-0.038,-0.004,-0.023,102.0,102.0,101.0,13.4,1505.2,323.1,-0.7,1.9,2471.016,13.29,0.038,264.0
2022-10-14T06:58:03,42.805,6.029,-0.032,0.029,-0.012,102.0,102.0,100.0,13.4,1505.2,328.6,-0.8,1.8,2470.998,13.29,0.043,312.2
2022-10-14T07:04:03,42.805,6.029,-0.007,0.0,-0.06,102.0,102.0,102.0,13.3,1505.2,329.9,-0.8,1.8,2471.063,13.29,0.007,270.0
2022-10-14T07:07:03,42.805,6.029,-0.01,0.002,-0.016,101.0,102.0,100.0,13.4,1505.2,330.8,-0.8,1.8,2471.07,13.29,0.01,281.3
2022-10-14T07:10:03,42.805,6.029,-0.022,0.011,-0.026,102.0,102.0,101.0,13.4,1505.2,320.6,-0.8,1.8,2471.096,13.29,0.024,296.6
2022-10-14T07:13:03,42.805,6.029,-0.022,0.016,-0.005,103.0,101.0,100.0,13.4,1505.2,321.6,-0.7,1.8,2471.003,13.29,0.027,306.0
2022-10-14T07:16:03,42.805,6.029,-0.041,-0.004,-0.025,103.0,103.0,100.0,13.4,1505.2,326.8,-0.8,1.8,2471.049,13.29,0.041,264.4
2022-10-14T07:19:03,42.805,6.029,-0.031,0.026,0.001,102.0,102.0,101.0,13.4,1505.2,333.1,-0.8,1.8,2471.022,13.29,0.04,310.0
2022-10-14T07:22:03,42.805,6.029,-0.016,0.018,0.003,102.0,100.0,101.0,13.3,1505.2,322.0,-0.8,1.8,2471.069,13.29,0.024,318.4
2022-10-14T07:25:03,42.805,6.029,-0.021,0.02,-0.026,101.0,101.0,101.0,13.4,1505.2,332.5,-0.8,1.8,2471.068,13.29,0.028,313.6
2022-10-14T07:28:03,42.805,6.029,-0.028,0.019,-0.057,102.0,101.0,100.0,13.3,1505.2,329.6,-0.8,1.8,2471.053,13.29,0.033,304.2
2022-10-14T07:31:03,42.805,6.029,-0.037,0.011,-0.034,101.0,102.0,101.0,13.4,1505.2,324.1,-0.7,1.8,2471.056,13.29,0.038,286.6
2022-10-14T07:34:03,42.805,6.029,-0.028,-0.01,-0.004,102.0,102.0,100.0,13.4,1505.2,322.1,-0.8,1.8,2471.045,13.29,0.029,250.4
2022-10-14T07:37:03,42.805,6.029,-0.012,-0.008,0.006,102.0,102.0,101.0,13.4,1505.2,320.7,-0.7,1.8,2471.054,13.29,0.014,236.3
2022-10-14T07:40:03,42.805,6.029,-0.028,0.009,-0.034,101.0,102.0,101.0,13.4,1505.2,331.1,-0.7,1.8,2471.079,13.29,0.029,287.8
2022-10-14T07:43:03,42.805,6.029,-0.027,-0.009,-0.046,102.0,102.0,100.0,13.4,1505.2,322.6,-0.7,1.8,2471.061,13.29,0.028,251.6
2022-10-14T07:46:03,42.805,6.029,-0.021,0.019,-0.013,103.0,103.0,100.0,13.4,1505.2,325.6,-0.7,1.8,2471.083,13.29,0.028,312.1
2022-10-14T07:49:03,42.805,6.029,-0.013,-0.009,-0.01,103.0,102.0,99.0,13.4,1505.2,321.1,-0.7,1.8,2471.083,13.29,0.015,235.3
2022-10-14T07:52:03,42.805,6.029,-0.023,0.017,-0.039,102.0,103.0,101.0,13.3,1505.2,326.5,-0.8,1.8,2471.101,13.29,0.028,306.5
2022-10-14T07:55:03,42.805,6.029,-0.024,0.018,0.013,102.0,101.0,100.0,13.4,1505.2,319.1,-0.7,1.8,2471.067,13.29,0.03,306.9
2022-10-14T07:58:03,42.805,6.029,-0.033,-0.001,-0.005,101.0,103.0,101.0,13.3,1505.2,318.3,-0.7,1.8,2471.084,13.29,0.033,268.3
2022-10-14T08:04:03,42.805,6.029,-0.013,0.0,-0.047,102.0,102.0,100.0,13.3,1505.2,317.9,-0.8,1.8,2471.112,13.29,0.013,270.0
2022-10-14T08:07:02,42.805,6.029,-0.015,0.01,0.001,102.0,102.0,100.0,13.4,1505.2,316.2,-0.8,1.8,2471.102,13.29,0.018,303.7
2022-10-14T08:10:03,42.805,6.029,-0.032,-0.003,-0.025,102.0,102.0,101.0,13.4,1505.2,332.0,-0.7,1.8,2471.126,13.29,0.032,264.6
2022-10-14T08:13:03,42.805,6.029,-0.015,0.019,0.005,102.0,102.0,100.0,13.4,1505.2,323.7,-0.8,1.8,2471.112,13.29,0.024,321.7
2022-10-14T08:16:03,42.805,6.029,-0.05,0.011,-0.008,102.0,102.0,101.0,13.3,1505.2,319.9,-0.7,1.8,2471.11,13.29,0.051,282.4
2022-10-14T08:19:02,42.805,6.029,-0.038,0.014,-0.007,102.0,101.0,100.0,13.4,1505.2,324.3,-0.8,1.8,2471.081,13.29,0.04,290.2
2022-10-14T08:22:03,42.805,6.029,-0.022,0.004,-0.009,101.0,102.0,100.0,13.4,1505.2,325.9,-0.7,1.8,2471.082,13.29,0.022,280.3
2022-10-14T08:25:03,42.805,6.029,-0.041,0.013,-0.017,102.0,103.0,100.0,13.3,1505.2,316.6,-0.8,1.8,2471.105,13.29,0.043,287.6
2022-10-14T08:28:02,42.805,6.029,-0.026,0.016,-0.034,102.0,102.0,100.0,13.4,1505.2,322.3,-0.8,1.9,2471.085,13.29,0.03,301.6
2022-10-14T08:31:03,42.805,6.029,-0.023,0.022,-0.013,101.0,103.0,101.0,13.4,1505.2,326.3,-0.8,1.8,2471.141,13.29,0.031,313.7
2022-10-14T08:34:03,42.805,6.029,-0.004,-0.008,-0.006,101.0,101.0,102.0,13.4,1505.2,326.1,-0.8,1.8,2471.105,13.29,0.008,206.6
2022-10-14T08:37:02,42.805,6.029,-0.024,0.0,-0.054,101.0,101.0,101.0,13.4,1505.2,318.0,-0.7,1.8,2471.086,13.29,0.024,270.0
2022-10-14T08:40:02,42.805,6.029,-0.06,0.005,-0.071,101.0,101.0,100.0,13.4,1505.2,321.7,-0.8,1.8,2471.099,13.29,0.06,274.8
2022-10-14T08:43:03,42.805,6.029,-0.034,0.019,-0.004,101.0,101.0,101.0,13.3,1505.2,320.4,-0.7,1.8,2471.074,13.29,0.038,299.2
2022-10-14T08:46:02,42.805,6.029,-0.032,0.009,-0.024,102.0,102.0,100.0,13.4,1505.2,324.9,-0.8,1.8,2471.112,13.29,0.033,285.7
2022-10-14T08:49:02,42.805,6.029,-0.02,0.008,-0.021,102.0,102.0,100.0,13.4,1505.2,318.4,-0.7,1.8,2471.068,13.29,0.021,291.8
2022-10-14T08:52:03,42.805,6.029,-0.015,0.004,-0.028,102.0,101.0,103.0,13.3,1505.2,329.2,-0.8,1.8,2471.102,13.29,0.015,284.9
2022-10-14T08:55:02,42.805,6.029,-0.04,-0.01,-0.042,102.0,101.0,100.0,13.3,1505.2,320.3,-0.8,1.8,2471.107,13.29,0.041,256.0
2022-10-14T08:58:02,42.805,6.029,-0.005,-0.009,-0.028,102.0,103.0,101.0,13.4,1505.2,335.3,-0.8,1.8,2471.069,13.29,0.01,209.1
2022-10-14T09:04:02,42.805,6.029,-0.026,0.024,0.001,102.0,102.0,100.0,13.4,1505.2,331.2,-0.8,1.8,2471.091,13.28,0.035,312.7
2022-10-14T09:07:02,42.805,6.029,-0.03,0.014,-0.014,102.0,102.0,100.0,13.4,1505.2,328.5,-0.8,1.8,2471.093,13.29,0.033,295.0
2022-10-14T09:10:03,42.805,6.029,-0.019,-0.022,-0.008,100.0,103.0,101.0,13.4,1505.2,327.5,-0.8,1.8,2471.079,13.29,0.029,220.8
2022-10-14T09:13:02,42.805,6.029,-0.024,0.008,-0.007,103.0,99.0,100.0,13.4,1505.2,319.2,-0.7,1.8,2471.087,13.29,0.025,288.4
2022-10-14T09:16:03,42.805,6.029,0.002,-0.004,-0.02,101.0,101.0,100.0,13.4,1505.2,326.3,-0.7,1.8,2471.084,13.29,0.004,153.4
2022-10-14T09:19:02,42.805,6.029,-0.003,0.0,-0.024,102.0,101.0,100.0,13.4,1505.2,323.8,-0.7,1.8,2471.081,13.29,0.003,270.0
2022-10-14T09:22:02,42.805,6.029,-0.023,0.0,0.001,101.0,102.0,101.0,13.4,1505.2,318.3,-0.8,1.8,2471.064,13.29,0.023,270.0
2022-10-14T09:25:03,42.805,6.029,-0.023,-0.009,-0.04,102.0,101.0,100.0,13.4,1505.2,319.8,-0.8,1.8,2471.054,13.29,0.024,248.6
2022-10-14T09:28:02,42.805,6.029,-0.011,0.001,0.012,102.0,101.0,101.0,13.4,1505.2,329.0,-0.8,1.8,2471.095,13.29,0.011,275.2
2022-10-14T09:31:02,42.805,6.029,-0.016,0.001,-0.019,100.0,102.0,101.0,13.4,1505.2,318.5,-0.8,1.8,2471.054,13.29,0.016,273.6
2022-10-14T09:34:03,42.805,6.029,-0.036,0.022,-0.021,102.0,103.0,99.0,13.3,1505.2,330.8,-0.7,1.8,2471.021,13.29,0.042,301.4
2022-10-14T09:37:02,42.805,6.029,-0.034,0.01,-0.035,101.0,102.0,102.0,13.4,1505.2,334.4,-0.7,1.9,2471.038,13.29,0.035,286.4
2022-10-14T09:40:03,42.805,6.029,-0.047,0.003,-0.033,101.0,103.0,99.0,13.3,1505.2,328.2,-0.8,1.8,2471.051,13.29,0.047,273.6
2022-10-14T09:43:02,42.805,6.029,-0.037,0.017,-0.018,101.0,101.0,101.0,13.4,1505.2,333.1,-0.8,1.8,2471.0,13.29,0.04,294.7
2022-10-14T09:46:03,42.805,6.029,-0.029,0.012,0.011,102.0,101.0,101.0,13.3,1505.2,317.5,-0.7,1.8,2471.039,13.29,0.031,292.5
2022-10-14T09:49:03,42.805,6.029,-0.064,0.016,-0.008,101.0,102.0,101.0,13.4,1505.2,320.6,-0.8,1.8,2471.046,13.29,0.065,284.0
2022-10-14T09:52:02,42.805,6.029,-0.04,0.007,-0.026,102.0,102.0,100.0,13.4,1505.2,329.7,-0.8,1.8,2471.014,13.29,0.04,279.9
2022-10-14T09:55:02,42.805,6.029,-0.021,0.015,-0.013,103.0,102.0,100.0,13.3,1505.2,328.4,-0.7,1.8,2471.036,13.29,0.025,305.5